Location: Goheenville
(40.9070°N, 79.3720°W)
Time: 03:56:42
(UTC-04:00)

Cosmos 1727 Rocket - Visible Passes

Search period start: 20 September 2014 00:00
Search period end: 30 September 2014 00:00
Orbit: 961 x 997 km, 82.9° (Epoch: 20 September)

Date Brightness Start Highest point End Pass type
(mag) Time Alt. Az. Time Alt. Az. Time Alt. Az.
20 Sep 5.9 03:50:20 10° NNE 03:55:29 26° ENE 04:00:34 10° SE visible
20 Sep 4.2 05:35:15 10° NNW 05:41:09 46° W 05:46:58 10° SSW visible
21 Sep 4.8 04:16:10 10° N 04:22:11 48° ENE 04:28:06 10° SSE visible
21 Sep 4.9 06:02:21 10° NNW 06:07:14 25° W 06:12:05 10° SW visible
21 Sep 7.2 19:36:31 10° W 19:38:29 11° WNW 19:40:28 10° NW visible
22 Sep 6.7 02:59:37 10° NE 03:02:16 13° ENE 03:04:53 10° E visible
22 Sep 3.9 04:42:24 10° N 04:48:40 87° E 04:54:51 10° S visible
22 Sep 5.6 06:30:35 10° NW 06:33:09 13° W 06:35:42 10° WSW visible
23 Sep 5.9 03:24:18 10° NNE 03:29:13 24° ENE 03:33:51 11° ESE visible
23 Sep 4.1 05:08:59 10° NNW 05:14:59 51° W 05:18:23 25° SSW visible
24 Sep 4.9 03:50:03 10° N 03:55:56 43° ENE 03:57:52 34° ESE visible
24 Sep 4.8 05:36:00 10° NNW 05:41:06 28° W 05:42:28 25° WSW visible
25 Sep 6.6 02:34:07 10° NE 02:35:57 11° ENE 02:37:46 10° E visible
25 Sep 3.9 04:16:13 10° N 04:22:28 79° E 04:22:33 79° E visible
25 Sep 5.5 06:03:55 10° NW 06:07:02 14° W 06:07:11 14° W visible
26 Sep 6.0 02:58:18 10° NNE 03:02:55 22° ENE 03:02:55 22° ENE visible
26 Sep 4.3 04:42:44 10° NNW 04:47:34 49° NW 04:47:34 49° NW visible
27 Sep 5.4 03:23:56 10° N 03:28:09 34° NE 03:28:09 34° NE visible
27 Sep 5.2 05:09:40 10° NNW 05:12:49 25° NW 05:12:49 25° NW visible
28 Sep 5.2 03:50:03 10° N 03:53:32 35° N 03:53:32 35° N visible
28 Sep 5.8 05:37:21 10° NW 05:38:12 12° NW 05:38:12 12° NW visible
29 Sep 6.4 02:32:19 10° NNE 02:34:21 16° NE 02:34:21 16° NE visible
29 Sep 5.4 04:16:30 10° NNW 04:19:01 26° NNW 04:19:01 26° NNW visible
